FW1340 Weather Reports


time (UTC)temp
C
wind
direction
speed
KPH
gust
KPH
rain 1hr
cm
rain 24hr
cm
rain mn
cm
humidity
%
barometer
mb
20260507091557 13 69 0.0 0.0 0.00 0.00 0.00 91 1018.4
20260507090056 13 69 0.0 0.0 0.00 0.00 0.00 91 1018.5
20260507084600 13 69 0.0 0.0 0.00 0.00 0.00 90 1018.6
20260507083053 13 70 0.0 0.0 0.00 0.00 0.00 89 1018.5
20260507081549 13 250 0.0 0.0 0.00 0.00 0.00 89 1018.5
20260507080052 13 250 0.0 0.0 0.00 0.00 0.00 88 1018.3
20260507074547 14 250 0.0 0.0 0.00 0.00 0.00 87 1018.3
20260507073044 14 265 0.0 0.0 0.00 0.00 0.00 87 1018.3
20260507071545 15 268 0.0 0.0 0.00 0.00 0.00 87 1018.3
20260507070052 15 268 0.0 0.0 0.00 0.00 0.00 86 1018.3
20260507064545 15 266 0.0 0.0 0.00 0.00 0.00 86 1018.3
20260507063039 15 254 0.0 0.0 0.00 0.00 0.00 85 1018.3
20260507061540 15 265 0.0 0.0 0.00 0.00 0.00 84 1018.3
20260507060044 16 267 0.0 0.0 0.00 0.00 0.00 83 1018.2
20260507054540 16 271 0.0 0.0 0.00 0.00 0.00 82 1018.2
20260507053039 16 243 0.0 0.0 0.00 0.00 0.00 82 1018.2
20260507051536 16 273 0.0 0.0 0.00 0.00 0.00 82 1018.1
20260507050058 17 263 0.0 0.0 0.00 0.00 0.00 80 1018.1
20260507044546 17 263 0.0 0.0 0.00 0.00 0.00 79 1018.0
20260507043035 17 255 0.0 0.0 0.00 0.00 0.00 78 1017.9
20260507041533 18 263 0.0 0.0 0.00 0.00 0.00 77 1017.8
20260507040033 18 248 0.0 0.0 0.00 0.00 0.00 76 1017.7
20260507034539 19 257 0.0 0.0 0.00 0.00 0.00 75 1017.4
20260507033039 20 278 0.0 0.0 0.00 0.00 0.00 74 1017.3
20260507031534 21 257 0.0 0.0 0.00 0.00 0.00 72 1017.2
20260507030036 21 271 0.0 0.0 0.00 0.00 0.00 68 1017.1
20260507024535 22 263 0.0 0.0 0.00 0.00 0.00 66 1017.0
20260507023030 23 262 0.0 0.0 0.00 0.00 0.00 63 1017.0
20260507021545 23 252 0.0 0.0 0.00 0.00 0.00 60 1016.9
20260507020030 23 254 0.0 0.0 0.00 0.00 0.00 58 1016.8
20260507014529 23 269 0.0 0.0 0.00 0.00 0.00 58 1016.8
20260507013034 24 251 0.0 0.0 0.00 0.00 0.00 57 1016.9
20260507011532 24 244 0.0 0.0 0.00 0.00 0.00 56 1016.9
20260507010038 24 265 0.0 0.0 0.00 0.00 0.00 56 1017.0
20260507004525 25 272 0.0 0.0 0.00 0.00 0.00 56 1016.9
20260507003027 25 281 0.0 0.0 0.00 0.00 0.00 55 1016.9
20260507001528 25 255 0.0 0.0 0.00 0.00 0.00 54 1016.9
20260507000027 25 265 0.0 0.0 0.00 0.00 0.00 55 1017.0
20260506234523 25 253 0.0 0.0 0.00 0.00 0.00 55 1017.0
20260506233020 25 9 0.0 0.0 0.00 0.00 0.00 53 1017.1
20260506231523 25 326 0.0 0.0 0.00 0.00 0.00 55 1017.3
20260506230015 24 232 0.0 0.0 0.00 0.00 0.00 54 1017.4
20260506224516 25 336 0.0 0.0 0.00 0.00 0.00 55 1017.6
20260506223015 24 26 0.0 0.0 0.00 0.00 0.00 54 1017.9
20260506221508 24 325 0.0 0.0 0.00 0.00 0.00 54 1018.2
20260506220014 24 5 0.0 0.0 0.00 0.00 0.00 54 1018.4
20260506214509 24 235 0.0 0.0 0.00 0.00 0.00 55 1018.6
20260506213002 23 355 0.0 0.0 0.00 0.00 0.00 55 1018.7
20260506211600 23 270 0.0 0.0 0.00 0.00 0.00 56 1018.8
20260506210056 22 36 0.0 0.0 0.00 0.00 0.00 59 1019.0
20260506204559 22 323 0.0 0.0 0.00 0.03 0.00 61 1019.2
20260506203053 22 71 0.0 0.0 0.00 0.03 0.00 59 1019.3
20260506201556 22 238 0.0 0.0 0.00 0.03 0.00 61 1019.6
20260506200107 21 55 0.0 0.0 0.00 0.03 0.00 60 1019.7
20260506194558 22 355 0.0 0.0 0.00 0.03 0.00 60 1019.9
20260506193047 22 355 0.0 0.0 0.00 0.03 0.00 62 1020.0
20260506191543 21 319 0.0 0.0 0.00 0.03 0.00 64 1020.1
20260506190140 21 296 0.0 0.0 0.00 0.03 0.00 65 1020.3
20260506184539 21 325 0.0 0.0 0.00 0.03 0.00 67 1020.4
20260506183043 21 239 0.0 0.0 0.00 0.03 0.00 67 1020.6
20260506181532 20 269 0.0 0.0 0.00 0.03 0.00 68 1020.6
20260506180027 20 348 0.0 0.0 0.00 0.03 0.00 70 1020.7
20260506174523 19 248 0.0 0.0 0.00 0.03 0.00 72 1020.7
20260506173021 19 274 0.0 0.0 0.00 0.03 0.00 73 1020.7
20260506171527 18 344 0.0 0.0 0.00 0.03 0.00 75 1020.7
20260506170011 17 335 0.0 0.0 0.00 0.03 0.00 80 1020.7
20260506164506 16 261 0.0 0.0 0.00 0.03 0.00 82 1020.7
20260506163004 15 259 0.0 0.0 0.00 0.03 0.00 82 1020.7
20260506161606 15 255 0.0 0.0 0.00 0.03 0.00 83 1020.8
20260506160058 15 267 0.0 0.0 0.00 0.03 0.00 83 1020.8
20260506154550 15 268 0.0 0.0 0.00 0.03 0.00 85 1020.9
20260506153047 14 239 0.0 0.0 0.00 0.03 0.00 86 1020.9
20260506151600 13 260 0.0 0.0 0.00 0.03 0.00 87 1020.8
20260506150040 13 271 0.0 0.0 0.00 0.03 0.00 88 1020.9
20260506144535 13 244 0.0 0.0 0.00 0.03 0.00 89 1020.8
20260506143043 13 257 0.0 0.0 0.00 0.03 0.00 89 1020.8
20260506141528 13 248 0.0 0.0 0.00 0.03 0.00 90 1020.6
20260506140032 13 244 0.0 0.0 0.00 0.03 0.00 90 1020.4
20260506134521 13 244 0.0 0.0 0.00 0.03 0.00 90 1020.3
20260506133023 13 244 0.0 0.0 0.00 0.03 0.00 90 1020.2
20260506131522 13 220 0.0 0.0 0.00 0.03 0.00 90 1020.1
20260506130016 13 220 0.0 0.0 0.00 0.03 0.00 90 1020.1
20260506124515 13 220 0.0 0.0 0.00 0.03 0.00 90 1020.0
20260506123016 13 199 0.0 0.0 0.00 0.03 0.00 90 1019.9
20260506121512 13 199 0.0 0.0 0.00 0.03 0.00 91 1019.8
20260506120011 13 199 0.0 0.0 0.00 0.03 0.00 91 1019.6
20260506114512 13 187 0.0 0.0 0.00 0.03 0.00 91 1019.6
20260506113010 13 187 0.0 0.0 0.00 0.03 0.00 90 1019.7
20260506111509 13 187 0.0 0.0 0.00 0.03 0.00 90 1019.7
20260506110007 13 187 0.0 0.0 0.00 0.03 0.00 90 1019.4
20260506104504 13 252 0.0 0.0 0.00 0.08 0.00 90 1019.3
20260506103010 13 252 0.0 0.0 0.00 0.08 0.00 90 1019.2
20260506101504 13 264 0.0 0.0 0.00 0.08 0.00 90 1019.1
20260506100003 13 264 0.0 0.0 0.00 0.25 0.00 90 1019.0
20260506094505 13 260 0.0 0.0 0.00 0.25 0.00 90 1018.9
20260506093002 13 260 0.0 0.0 0.00 0.25 0.00 90 1019.0